User: anonymous   Login
Location: Unspecified
(0.0000°N, 0.0000°E)
Time: 19:15:21
(UTC+00:00)
Language:

STARLINK-4787 - Orbit

View from above orbital plane
View from above orbital plane
View from above satellite
View from above satellite

Ground track
Ground track

The orbit is defined by the following mean orbital elements,

1 53904U          26144.95465977 +.00000000 +00000-0 +14518-4 0 00006
2 53904  53.2153 341.3507 0001590 100.0828 260.0343 15.08836719    05
Epoch (UTC): 24 May 2026 22:54:42
Eccentricity: 0.0001590
inclination: 53.2153°
perigee height: 539 km
apogee height: 541 km
right ascension of ascending node: 341.3507°
argument of perigee: 100.0828°
revolutions per day: 15.08836719
mean anomaly at epoch: 260.0343°

The dashed part of the orbit path shows where the satellite is in the earth's shadow,  

DLR